• în România
  • Lista ţărilor
  • Pe 7 zile
  • Temperatura apei
  • Hartă satelitară
  • Meteo pe hartă
  • Widget-uri
  • user-avatar
    Intrare

    Meteo pe oră la Ischgl

    Astăzi, 23 Februarie, Joi

    Timp Temperatura Precipitaţii Vânt Presiune Umiditate
    00:00 -9°C° 0 mm 2 m/s 568 mmHg 81%
    01:00 -9°C° 0 mm 2 m/s 568 mmHg 82%
    02:00 -9°C° 0 mm 2 m/s 568 mmHg 83%
    03:00 -8°C° 0 mm 2 m/s 568 mmHg 84%
    04:00 -8°C° 0 mm 2 m/s 568 mmHg 85%
    05:00 -9°C° 0 mm 2 m/s 567 mmHg 84%
    06:00 -9°C° 0 mm 2 m/s 567 mmHg 84%
    07:00 -9°C° 0 mm 2 m/s 567 mmHg 84%
    08:00 -7°C° 0 mm 2 m/s 568 mmHg 87%
    09:00 -4°C° 0 mm 2 m/s 569 mmHg 89%
    10:00 -2°C° 0 mm 2 m/s 570 mmHg 92%
    11:00 -1°C° 0 mm 2 m/s 570 mmHg 92%
    12:00 -1°C° 0 mm 2 m/s 569 mmHg 93%
    13:00 +1°C° 0 mm 2 m/s 569 mmHg 93%
    14:00 +1°C° 0 mm 2 m/s 568 mmHg 94%
    15:00 -1°C° 0 mm 2 m/s 568 mmHg 94%
    16:00 -1°C° 0 mm 3 m/s 567 mmHg 95%
    17:00 -4°C° 0 mm 3 m/s 567 mmHg 95%
    18:00 -5°C° 0 mm 3 m/s 566 mmHg 95%
    19:00 -6°C° 0 mm 3 m/s 565 mmHg 96%
    20:00 -7°C° 0 mm 3 m/s 565 mmHg 95%
    21:00 -7°C° 0 mm 3 m/s 565 mmHg 95%
    22:00 -8°C° 0 mm 3 m/s 565 mmHg 95%
    23:00 -8°C° 0,2 mm 3 m/s 565 mmHg 95%

    Mâine, 24 Februarie, Vineri

    Timp Temperatura Precipitaţii Vânt Presiune Umiditate
    00:00 -7°C° 0,2 mm 3 m/s 565 mmHg 94%
    01:00 -6°C° 0,2 mm 2 m/s 565 mmHg 94%
    02:00 -6°C° 0,6 mm 2 m/s 565 mmHg 95%
    03:00 -6°C° 0,6 mm 2 m/s 565 mmHg 96%
    04:00 -6°C° 0,6 mm 2 m/s 565 mmHg 96%
    05:00 -6°C° 0,9 mm 2 m/s 565 mmHg 96%
    06:00 -7°C° 0,9 mm 2 m/s 565 mmHg 97%
    07:00 -7°C° 0,9 mm 2 m/s 565 mmHg 97%
    08:00 -7°C° 0,8 mm 2 m/s 565 mmHg 97%
    09:00 -7°C° 0,8 mm 2 m/s 565 mmHg 96%
    10:00 -7°C° 0,8 mm 2 m/s 565 mmHg 96%
    11:00 -7°C° 0,4 mm 2 m/s 565 mmHg 95%
    12:00 -7°C° 0,4 mm 2 m/s 565 mmHg 94%
    13:00 -7°C° 0,4 mm 2 m/s 565 mmHg 94%
    14:00 -8°C° 0,2 mm 3 m/s 565 mmHg 94%
    15:00 -9°C° 0,2 mm 3 m/s 565 mmHg 94%
    16:00 -9°C° 0,2 mm 3 m/s 565 mmHg 94%
    17:00 -10°C° 0,3 mm 3 m/s 565 mmHg 95%
    18:00 -10°C° 0,3 mm 2 m/s 565 mmHg 96%
    19:00 -12°C° 0,3 mm 2 m/s 566 mmHg 96%
    20:00 -12°C° 0,3 mm 2 m/s 566 mmHg 96%
    21:00 -12°C° 0,3 mm 2 m/s 567 mmHg 96%
    22:00 -13°C° 0,3 mm 2 m/s 567 mmHg 96%
    23:00 -13°C° 0,1 mm 2 m/s 567 mmHg 97%

    Poimâine, 25 Februarie, Sâmbătă

    Timp Temperatura Precipitaţii Vânt Presiune Umiditate
    00:00 -14°C° 0,1 mm 2 m/s 567 mmHg 97%
    01:00 -14°C° 0,1 mm 2 m/s 567 mmHg 97%
    02:00 -15°C° 0 mm 2 m/s 567 mmHg 97%
    03:00 -14°C° 0 mm 1 m/s 567 mmHg 97%
    04:00 -14°C° 0 mm 1 m/s 567 mmHg 98%
    05:00 -15°C° 0 mm 1 m/s 567 mmHg 97%
    06:00 -16°C° 0 mm 1 m/s 566 mmHg 97%
    07:00 -17°C° 0 mm 1 m/s 566 mmHg 97%
    08:00 -14°C° 0 mm 1 m/s 568 mmHg 94%
    09:00 -11°C° 0 mm 1 m/s 570 mmHg 91%
    10:00 -9°C° 0 mm 1 m/s 571 mmHg 87%
    11:00 -7°C° 0 mm 1 m/s 572 mmHg 87%
    12:00 -6°C° 0 mm 1 m/s 573 mmHg 86%
    13:00 -3°C° 0 mm 1 m/s 573 mmHg 86%
    14:00 -3°C° 0 mm 1 m/s 573 mmHg 87%
    15:00 -4°C° 0 mm 0 m/s 573 mmHg 89%
    16:00 -4°C° 0 mm 0 m/s 573 mmHg 91%
    17:00 -8°C° 0 mm 0 m/s 571 mmHg 92%
    18:00 -12°C° 0 mm 1 m/s 569 mmHg 94%
    19:00 -16°C° 0 mm 1 m/s 566 mmHg 96%
    20:00 -15°C° 0 mm 1 m/s 567 mmHg 91%
    21:00 -14°C° 0 mm 1 m/s 568 mmHg 86%
    22:00 -13°C° 0 mm 1 m/s 569 mmHg 81%
    23:00 -12°C° 0 mm 1 m/s 569 mmHg 81%

    26 Februarie, Duminică

    Timp Temperatura Precipitaţii Vânt Presiune Umiditate
    00:00 -13°C° 0 mm 2 m/s 570 mmHg 82%
    01:00 -12°C° 0 mm 2 m/s 570 mmHg 82%
    02:00 -12°C° 0 mm 2 m/s 570 mmHg 81%
    03:00 -12°C° 0 mm 2 m/s 570 mmHg 81%
    04:00 -10°C° 0 mm 2 m/s 570 mmHg 81%
    05:00 -12°C° 0 mm 2 m/s 569 mmHg 80%
    06:00 -12°C° 0 mm 2 m/s 569 mmHg 80%
    07:00 -13°C° 0 mm 2 m/s 568 mmHg 80%
    08:00 -8°C° 0 mm 1 m/s 570 mmHg 83%
    09:00 -4°C° 0 mm 1 m/s 572 mmHg 86%
    10:00 0°C° 0 mm 1 m/s 573 mmHg 89%
    11:00 0°C° 0 mm 1 m/s 573 mmHg 89%
    12:00 +1°C° 0 mm 1 m/s 573 mmHg 89%
    13:00 0°C° 0 mm 0 m/s 573 mmHg 89%
    14:00 0°C° 0 mm 0 m/s 573 mmHg 91%
    15:00 +1°C° 0 mm 1 m/s 573 mmHg 92%
    16:00 +1°C° 0 mm 1 m/s 572 mmHg 94%
    17:00 -2°C° 0 mm 1 m/s 571 mmHg 92%
    18:00 -5°C° 0 mm 0 m/s 570 mmHg 91%
    19:00 -8°C° 0 mm 0 m/s 568 mmHg 90%
    20:00 -8°C° 0 mm 0 m/s 568 mmHg 89%
    21:00 -9°C° 0 mm 0 m/s 568 mmHg 88%
    22:00 -10°C° 0 mm 0 m/s 568 mmHg 87%
    23:00 -9°C° 0 mm 1 m/s 568 mmHg 84%

    27 Februarie, Luni

    Timp Temperatura Precipitaţii Vânt Presiune Umiditate
    00:00 -9°C° 0 mm 1 m/s 567 mmHg 82%
    01:00 -9°C° 0 mm 1 m/s 567 mmHg 80%
    02:00 -9°C° 0 mm 1 m/s 568 mmHg 82%
    03:00 -8°C° 0 mm 1 m/s 568 mmHg 84%
    04:00 -7°C° 0 mm 1 m/s 568 mmHg 86%
    05:00 -7°C° 0 mm 1 m/s 568 mmHg 87%
    06:00 -8°C° 0 mm 2 m/s 568 mmHg 88%
    07:00 -8°C° 0 mm 2 m/s 568 mmHg 89%
    08:00 -7°C° 0 mm 2 m/s 569 mmHg 89%
    09:00 -5°C° 0 mm 2 m/s 569 mmHg 89%
    10:00 -3°C° 0 mm 2 m/s 570 mmHg 89%
    11:00 -2°C° 0 mm 2 m/s 570 mmHg 88%
    12:00 -2°C° 0 mm 2 m/s 570 mmHg 88%
    13:00 -1°C° 0 mm 2 m/s 570 mmHg 87%
    14:00 -1°C° 0 mm 2 m/s 569 mmHg 88%
    15:00 -2°C° 0 mm 2 m/s 569 mmHg 90%
    16:00 -2°C° 0 mm 2 m/s 568 mmHg 91%
    17:00 -3°C° 0 mm 2 m/s 567 mmHg 92%
    18:00 -5°C° 0 mm 2 m/s 567 mmHg 93%
    19:00 -6°C° 0 mm 2 m/s 566 mmHg 94%
    20:00 -6°C° 0 mm 2 m/s 566 mmHg 94%
    21:00 -7°C° 0 mm 2 m/s 566 mmHg 94%
    22:00 -8°C° 0 mm 3 m/s 565 mmHg 93%
    23:00 -8°C° 0 mm 3 m/s 565 mmHg 93%

    28 Februarie, Marţi

    Timp Temperatura Precipitaţii Vânt Presiune Umiditate
    00:00 -8°C° 0 mm 3 m/s 565 mmHg 93%
    01:00 -8°C° 0 mm 3 m/s 565 mmHg 93%
    02:00 -8°C° 0 mm 3 m/s 564 mmHg 93%
    03:00 -8°C° 0 mm 3 m/s 564 mmHg 93%
    04:00 -7°C° 0 mm 2 m/s 564 mmHg 93%
    05:00 -8°C° 0,1 mm 3 m/s 563 mmHg 93%
    06:00 -8°C° 0,1 mm 3 m/s 563 mmHg 93%
    07:00 -8°C° 0,1 mm 3 m/s 563 mmHg 93%
    08:00 -6°C° 0,3 mm 2 m/s 563 mmHg 91%
    09:00 -5°C° 0,3 mm 2 m/s 563 mmHg 90%
    10:00 -3°C° 0,3 mm 2 m/s 564 mmHg 88%
    11:00 -4°C° 1,2 mm 2 m/s 563 mmHg 91%
    12:00 -4°C° 1,2 mm 2 m/s 563 mmHg 93%
    13:00 -4°C° 1,2 mm 2 m/s 562 mmHg 95%
    14:00 -4°C° 2,3 mm 2 m/s 562 mmHg 95%
    15:00 -5°C° 2,3 mm 2 m/s 562 mmHg 96%
    16:00 -5°C° 2,3 mm 2 m/s 562 mmHg 97%
    17:00 -6°C° 1,9 mm 2 m/s 561 mmHg 97%
    18:00 -7°C° 1,9 mm 2 m/s 561 mmHg 97%
    19:00 -8°C° 1,9 mm 2 m/s 560 mmHg 97%
    20:00 -9°C° 1,3 mm 2 m/s 560 mmHg 97%
    21:00 -9°C° 1,3 mm 2 m/s 560 mmHg 97%
    22:00 -10°C° 1,3 mm 2 m/s 560 mmHg 97%
    23:00 -12°C° 0,3 mm 2 m/s 559 mmHg 96%
    Arată mai mult